星链-4587 (STARLINK-4587 )

导读

STARLINK-4587是美国太空探索技术公司(SpaceX)星链星座中的卫星,于2022年8月28日发射,星链项目旨在为全球提供高速互联网服务,该卫星属于星链低轨互联网星座的组成部分,承担着覆盖全球网络信号的任务,依托近地轨道部署,可助力实现偏远地区网络接入,推动全球互联网络覆盖进一步拓展。

基本信息
目录编号:
53635
目录名称:
STARLINK-4587
国际标识:
2022-104AZ
轨道中心:
EARTH
卫星名称:
星链-4587
卫星全名:
星链-4587 (STARLINK-4587 )
卫星状态:
已陨落 最后检测时间 2026-02-03
发射日期:
2022-08-28 UTC
国别 :
美国 (US)
星等 :
--
该卫星已列入 空间交会检测服务 Space Conjunction Data Service (SCDS) ,当前飞行风险评估等级: 无高风险
轨道信息
数据来源 国际轨道数据
星历时间: 2026-02-03T12:53:54+0800
轨道信息已过期221天
半长轴: 6522.104km
偏心率: 0.0006347
轨道倾角: 53.204°
近地点辐角 173.696°
升交点赤经 354.213°
平近点角 186.418°
近地点: 139.827km
远地点: 148.107km
周期: 87.366分钟
每日圈数: 16.482428
详细信息
固有亮度:
5
最大亮度:
2.5
卫星平台:
Starlink v1.5
覆盖范围:
全球
运营商:
太空探索技术公司
运营商所在国:
美国
制造商(研发单位):
太空探索技术公司
制造商所在国:
美国
使用方式:
暂无
卫星简介
星链(Starlink)计划是由太空探索技术公司(SpaceX)提出的一个巨型低轨卫星互联网星座项目,计划在2019年至2024年间在太空搭建由约1.2万颗卫星组成的“星链”网络,其中1584颗将部署在地球上空550千米处的近地轨道,并从2020年开始工作。该卫星仍在工作。
与全量物体交会距离演化趋势
与全量物体交会风险概率演化趋势